TimeEST,TemperatureF,Dew PointF,Humidity,Sea Level PressureIn,VisibilityMPH,Wind Direction,Wind SpeedMPH,Gust SpeedMPH,PrecipitationIn,Events,Conditions,WindDirDegrees,DateUTC
12:15 AM,44.6,33.8,66,30.35,10.0,SSW,6.9,-,N/A,,Partly Cloudy,200,2012-01-17 05:15:00
12:35 AM,44.6,32.0,61,30.34,10.0,SSW,5.8,-,N/A,,Scattered Clouds,210,2012-01-17 05:35:00
1:15 AM,42.8,32.0,66,30.33,10.0,SSW,4.6,-,N/A,,Clear,200,2012-01-17 06:15:00
1:35 AM,42.8,33.8,70,30.32,10.0,South,4.6,-,N/A,,Partly Cloudy,190,2012-01-17 06:35:00
1:55 AM,44.6,33.8,66,30.32,10.0,SSW,6.9,-,N/A,,Mostly Cloudy,210,2012-01-17 06:55:00
2:15 AM,46.4,35.6,66,30.31,10.0,SSW,8.1,-,N/A,,Mostly Cloudy,210,2012-01-17 07:15:00
2:35 AM,44.6,35.6,71,30.30,10.0,SW,8.1,-,N/A,,Scattered Clouds,220,2012-01-17 07:35:00
2:55 AM,46.4,35.6,66,30.30,10.0,SSW,8.1,-,N/A,,Mostly Cloudy,210,2012-01-17 07:55:00
3:15 AM,44.6,35.6,71,30.29,10.0,SSW,8.1,-,N/A,,Partly Cloudy,210,2012-01-17 08:15:00
3:35 AM,44.6,35.6,71,30.28,10.0,SW,8.1,-,N/A,,Clear,220,2012-01-17 08:35:00
3:55 AM,46.4,37.4,71,30.27,10.0,SSW,8.1,-,N/A,,Clear,210,2012-01-17 08:55:00
4:35 AM,46.4,39.2,76,30.25,10.0,SW,9.2,-,N/A,,Clear,220,2012-01-17 09:35:00
4:55 AM,46.4,39.2,76,30.25,10.0,SW,11.5,-,N/A,,Clear,220,2012-01-17 09:55:00
5:15 AM,46.4,39.2,76,30.24,10.0,SW,11.5,-,N/A,,Clear,220,2012-01-17 10:15:00
5:35 AM,46.4,39.2,76,30.24,10.0,SW,10.4,-,N/A,,Clear,230,2012-01-17 10:35:00
5:55 AM,46.4,39.2,76,30.24,10.0,SW,8.1,-,N/A,,Clear,230,2012-01-17 10:55:00
6:15 AM,44.6,39.2,81,30.23,10.0,WSW,5.8,-,N/A,,Clear,240,2012-01-17 11:15:00
6:35 AM,44.6,39.2,81,30.24,10.0,WSW,3.5,-,N/A,,Clear,250,2012-01-17 11:35:00
7:15 AM,46.4,39.2,76,30.24,10.0,WSW,5.8,-,N/A,,Clear,240,2012-01-17 12:15:00
7:35 AM,44.6,39.2,81,30.23,10.0,SW,9.2,-,N/A,,Clear,220,2012-01-17 12:35:00
7:55 AM,44.6,39.2,81,30.21,10.0,SW,6.9,-,N/A,,Clear,230,2012-01-17 12:55:00
8:15 AM,46.4,41.0,81,30.22,10.0,WSW,4.6,-,N/A,,Clear,240,2012-01-17 13:15:00
8:35 AM,46.4,41.0,81,30.22,10.0,WSW,5.8,-,N/A,,Clear,240,2012-01-17 13:35:00
8:55 AM,50.0,42.8,76,30.22,10.0,WSW,9.2,-,N/A,,Clear,240,2012-01-17 13:55:00
9:15 AM,51.8,42.8,71,30.23,10.0,WSW,12.7,-,N/A,,Partly Cloudy,240,2012-01-17 14:15:00
9:35 AM,51.8,44.6,76,30.23,10.0,WSW,12.7,17.3,N/A,,Scattered Clouds,240,2012-01-17 14:35:00
10:15 AM,57.2,46.4,67,30.21,10.0,WSW,17.3,25.3,N/A,,Partly Cloudy,240,2012-01-17 15:15:00
10:35 AM,57.2,46.4,67,30.21,10.0,WSW,17.3,25.3,N/A,,Clear,250,2012-01-17 15:35:00
10:55 AM,57.2,46.4,67,30.21,10.0,WSW,13.8,24.2,N/A,,Scattered Clouds,250,2012-01-17 15:55:00
11:15 AM,57.2,46.4,67,30.20,10.0,WSW,13.8,24.2,N/A,,Mostly Cloudy,240,2012-01-17 16:15:00
11:35 AM,59.0,46.4,63,30.19,10.0,WSW,18.4,21.9,N/A,,Mostly Cloudy,240,2012-01-17 16:35:00
11:55 AM,60.8,46.4,59,30.17,10.0,WSW,16.1,27.6,N/A,,Overcast,250,2012-01-17 16:55:00
12:15 PM,60.8,48.2,63,30.16,10.0,WSW,17.3,28.8,N/A,,Mostly Cloudy,240,2012-01-17 17:15:00
12:35 PM,60.8,48.2,63,30.14,10.0,WSW,20.7,26.5,N/A,,Overcast,240,2012-01-17 17:35:00
12:55 PM,62.6,48.2,59,30.12,10.0,SW,20.7,26.5,N/A,,Mostly Cloudy,230,2012-01-17 17:55:00
1:15 PM,60.8,48.2,63,30.10,10.0,SW,18.4,32.2,N/A,,Mostly Cloudy,220,2012-01-17 18:15:00
1:35 PM,60.8,48.2,63,30.08,10.0,SW,25.3,31.1,N/A,,Mostly Cloudy,230,2012-01-17 18:35:00
1:55 PM,60.8,48.2,63,30.05,10.0,SSW,15.0,28.8,N/A,,Partly Cloudy,210,2012-01-17 18:55:00
2:35 PM,62.6,48.2,59,30.04,10.0,SW,21.9,28.8,N/A,,Clear,230,2012-01-17 19:35:00
2:55 PM,64.4,48.2,56,30.04,10.0,SW,21.9,29.9,N/A,,Partly Cloudy,230,2012-01-17 19:55:00
3:15 PM,62.6,48.2,59,30.04,10.0,SW,17.3,26.5,N/A,,Mostly Cloudy,230,2012-01-17 20:15:00
3:35 PM,64.4,48.2,56,30.04,10.0,WSW,25.3,32.2,N/A,,Mostly Cloudy,240,2012-01-17 20:35:00
3:55 PM,62.6,48.2,59,30.04,10.0,SW,15.0,26.5,N/A,,Mostly Cloudy,220,2012-01-17 20:55:00
4:15 PM,62.6,48.2,59,30.02,10.0,SW,18.4,21.9,N/A,,Mostly Cloudy,230,2012-01-17 21:15:00
4:35 PM,62.6,48.2,59,30.02,10.0,WSW,18.4,25.3,N/A,,Partly Cloudy,240,2012-01-17 21:35:00
4:55 PM,62.6,48.2,59,30.02,10.0,SW,8.1,-,N/A,,Clear,220,2012-01-17 21:55:00
5:35 PM,60.8,48.2,63,30.02,10.0,SSW,8.1,-,N/A,,Clear,210,2012-01-17 22:35:00
5:55 PM,59.0,48.2,67,30.01,10.0,SSW,10.4,-,N/A,,Clear,210,2012-01-17 22:55:00
6:15 PM,59.0,48.2,67,29.99,10.0,SSW,11.5,-,N/A,,Clear,210,2012-01-17 23:15:00
6:35 PM,57.2,48.2,72,29.99,10.0,SSW,13.8,18.4,N/A,,Clear,210,2012-01-17 23:35:00
6:55 PM,57.2,48.2,72,30.00,10.0,SW,17.3,23.0,N/A,,Partly Cloudy,220,2012-01-17 23:55:00
7:15 PM,59.0,48.2,67,30.00,10.0,SW,16.1,23.0,N/A,,Scattered Clouds,220,2012-01-18 00:15:00
7:35 PM,59.0,48.2,67,29.99,10.0,SW,15.0,20.7,N/A,,Clear,220,2012-01-18 00:35:00
7:55 PM,59.0,48.2,67,29.98,10.0,SSW,15.0,21.9,N/A,,Clear,210,2012-01-18 00:55:00
8:15 PM,59.0,48.2,67,29.98,10.0,SW,15.0,19.6,N/A,,Scattered Clouds,220,2012-01-18 01:15:00
8:35 PM,59.0,48.2,67,29.98,10.0,SW,15.0,20.7,N/A,,Overcast,220,2012-01-18 01:35:00
8:55 PM,59.0,48.2,67,29.98,10.0,SW,12.7,18.4,N/A,,Overcast,220,2012-01-18 01:55:00
9:15 PM,60.8,48.2,63,29.98,10.0,SW,16.1,21.9,N/A,,Overcast,220,2012-01-18 02:15:00
9:35 PM,59.0,50.0,72,29.97,10.0,SW,9.2,-,N/A,,Overcast,230,2012-01-18 02:35:00
9:55 PM,57.2,50.0,77,29.98,10.0,SW,11.5,17.3,0.02,,Overcast,230,2012-01-18 02:55:00
10:15 PM,55.4,51.8,88,30.01,9.0,West,6.9,-,0.18,,Mostly Cloudy,280,2012-01-18 03:15:00
10:35 PM,55.4,51.8,88,30.00,10.0,West,3.5,-,0.27,,Overcast,260,2012-01-18 03:35:00
10:55 PM,55.4,51.8,88,29.99,10.0,WSW,3.5,-,0.29,,Overcast,240,2012-01-18 03:55:00
11:15 PM,55.4,51.8,88,29.95,10.0,South,8.1,-,N/A,,Overcast,170,2012-01-18 04:15:00
11:35 PM,55.4,51.8,88,29.94,10.0,SSW,13.8,-,0.01,,Overcast,200,2012-01-18 04:35:00
11:55 PM,55.4,51.8,88,29.91,10.0,SSW,13.8,18.4,0.01,,Overcast,200,2012-01-18 04:55:00